Weather History for Bartow, FL

Change the Weather History Date:

Friday, December 27, 2013

  Actual Average Record
Temperature  
Mean Temperature 65 °F -  
Max Temperature 71 °F 71 °F 87 °F (1941)
Min Temperature 59 °F 48 °F 29 °F (1977)
Growing Degree Days 15 (Base 50)    
Moisture  
Dew Point 61 °F    
Average Humidity 90    
Maximum Humidity 100    
Minimum Humidity 73    
Precipitation  
Precipitation 0.00 in - - ()
Sea Level Pressure  
Sea Level Pressure 30.21 in    
Wind  
Wind Speed 8 mph (NNE)    
Max Wind Speed 13 mph    
Max Gust Speed 18 mph    
Visibility 10 miles    
Events      
Averages and records for this station are not official NWS values.
T = Trace of Precipitation, MM = Missing Value Source: NWS Daily Summary

Daily Weather History Graph

Daily Weather History Graph

Search for Another Location

Airport:

Trip Planner

Search our weather history database for the weather conditions in past years. The results will help you decide how hot, cold, wet, or windy it might be!

Date:

Astronomy

Dec. 27, 2013 Rise Set
Actual Time 7:16 AM EST 5:39 PM EST
Civil Twilight 6:51 AM EST 6:05 PM EST
Nautical Twilight 6:21 AM EST 6:34 PM EST
Astronomical Twilight 5:53 AM EST 7:03 PM EST
Moon 2:03 AM EST (12/27) 1:35 PM EST (12/27)
Length of Visible Light 11h 14m
Length of Day
10h 23m
Waning Crescent, 28% of the Moon is Illuminated
Dec 27
Waning Crescent
Jan 1
New
Jan 7
First Quarter
Jan 15
Full
Jan 24
Last Quarter

Hourly Weather History & Observations

Time (EST) Temp. Dew Point Humidity Pressure Visibility Wind Dir Wind Speed Gust Speed Precip Events Conditions
12:15 AM 60.8 °F 59.0 °F 94% 30.21 in 10.0 mi NE 5.8 mph - N/A   Overcast
12:35 AM 60.8 °F 59.0 °F 94% 30.21 in 10.0 mi NNE 8.1 mph - N/A   Mostly Cloudy
12:55 AM 60.8 °F 59.0 °F 94% 30.20 in 10.0 mi NNE 8.1 mph - N/A   Mostly Cloudy
1:15 AM 60.8 °F 59.0 °F 94% 30.20 in 10.0 mi NE 8.1 mph - N/A   Mostly Cloudy
1:35 AM 60.8 °F 59.0 °F 94% 30.20 in 10.0 mi NNE 5.8 mph - N/A   Overcast
1:55 AM 60.8 °F 59.0 °F 94% 30.20 in 10.0 mi NNE 8.1 mph - N/A   Mostly Cloudy
2:15 AM 60.8 °F 59.0 °F 94% 30.20 in 10.0 mi NNE 8.1 mph - N/A   Mostly Cloudy
2:35 AM 60.8 °F 57.2 °F 88% 30.19 in 10.0 mi NNE 12.7 mph - N/A   Overcast
2:55 AM 59.0 °F 57.2 °F 94% 30.19 in 10.0 mi NNE 9.2 mph - N/A   Overcast
3:15 AM 59.0 °F 57.2 °F 94% 30.19 in 10.0 mi NNE 11.5 mph - N/A   Overcast
3:35 AM 59.0 °F 57.2 °F 94% 30.19 in 10.0 mi NNE 10.4 mph - N/A   Overcast
3:55 AM 59.0 °F 57.2 °F 94% 30.20 in 10.0 mi NNE 8.1 mph - N/A   Overcast
4:15 AM 59.0 °F 57.2 °F 94% 30.20 in 10.0 mi NNE 8.1 mph - N/A   Overcast
4:35 AM 59.0 °F 57.2 °F 94% 30.20 in 10.0 mi NNE 8.1 mph - N/A   Overcast
4:55 AM 59.0 °F 57.2 °F 94% 30.20 in 10.0 mi NNE 9.2 mph - N/A   Mostly Cloudy
5:15 AM 59.0 °F 57.2 °F 94% 30.20 in 10.0 mi NNE 5.8 mph - N/A   Mostly Cloudy
5:35 AM 59.0 °F 59.0 °F 100% 30.20 in 10.0 mi NNE 6.9 mph - N/A   Mostly Cloudy
5:55 AM 60.8 °F 59.0 °F 94% 30.19 in 10.0 mi NNE 5.8 mph - N/A   Scattered Clouds
6:15 AM 60.8 °F 60.8 °F 100% 30.20 in 10.0 mi NNE 5.8 mph - N/A   Mostly Cloudy
2:35 PM 69.8 °F 62.6 °F 78% 30.19 in 10.0 mi NNE 9.2 mph - N/A   Partly Cloudy
2:55 PM 69.8 °F 62.6 °F 78% 30.18 in 10.0 mi NE 6.9 mph - N/A   Clear
3:15 PM 71.6 °F 62.6 °F 73% 30.18 in 10.0 mi NE 9.2 mph - N/A   Partly Cloudy
3:35 PM 71.6 °F 62.6 °F 73% 30.18 in 10.0 mi NNE 8.1 mph - N/A   Partly Cloudy
3:55 PM 71.6 °F 62.6 °F 73% 30.17 in 10.0 mi NE 11.5 mph - N/A   Clear
4:15 PM 71.6 °F 62.6 °F 73% 30.18 in 10.0 mi NNE 9.2 mph - N/A   Clear
4:35 PM 69.8 °F 62.6 °F 78% 30.18 in 10.0 mi NNE 11.5 mph - N/A   Clear
4:55 PM 69.8 °F 62.6 °F 78% 30.18 in 10.0 mi NNE 9.2 mph - N/A   Clear
5:15 PM 69.8 °F 62.6 °F 78% 30.20 in 10.0 mi NNE 6.9 mph - N/A   Clear
5:35 PM 69.8 °F 62.6 °F 78% 30.20 in 10.0 mi NNE 10.4 mph 16.1 mph N/A   Partly Cloudy
5:55 PM 68.0 °F 62.6 °F 83% 30.21 in 10.0 mi NNE 9.2 mph - N/A   Partly Cloudy
6:15 PM 68.0 °F 62.6 °F 83% 30.22 in 10.0 mi NNE 8.1 mph - N/A   Mostly Cloudy
6:35 PM 66.2 °F 62.6 °F 88% 30.22 in 10.0 mi NNE 6.9 mph - N/A   Scattered Clouds
6:55 PM 66.2 °F 62.6 °F 88% 30.23 in 10.0 mi NNE 9.2 mph - N/A   Clear
7:15 PM 66.2 °F 62.6 °F 88% 30.23 in 10.0 mi NNE 9.2 mph - N/A   Partly Cloudy
7:35 PM 66.2 °F 62.6 °F 88% 30.24 in 10.0 mi NNE 11.5 mph - N/A   Mostly Cloudy
7:55 PM 66.2 °F 62.6 °F 88% 30.24 in 10.0 mi NNE 9.2 mph 17.3 mph N/A   Mostly Cloudy
8:15 PM 66.2 °F 62.6 °F 88% 30.24 in 10.0 mi NE 8.1 mph - N/A   Scattered Clouds
8:35 PM 64.4 °F 62.6 °F 94% 30.24 in 10.0 mi NE 6.9 mph - N/A   Clear
8:55 PM 64.4 °F 64.4 °F 100% 30.24 in 10.0 mi NE 6.9 mph - N/A   Clear
9:15 PM 64.4 °F 64.4 °F 100% 30.25 in 10.0 mi NNE 6.9 mph - N/A   Clear
9:35 PM 64.4 °F 64.4 °F 100% 30.24 in 10.0 mi NNE 8.1 mph - N/A   Clear
9:55 PM 64.4 °F 64.4 °F 100% 30.24 in 10.0 mi NNE 8.1 mph - N/A   Clear
10:15 PM 64.4 °F 64.4 °F 100% 30.25 in 10.0 mi NE 9.2 mph - N/A   Clear
10:35 PM 64.4 °F 64.4 °F 100% 30.25 in 10.0 mi NE 8.1 mph - N/A   Scattered Clouds
10:55 PM 64.4 °F 64.4 °F 100% 30.24 in 10.0 mi NNE 9.2 mph - N/A   Overcast
11:15 PM 64.4 °F 64.4 °F 100% 30.24 in 10.0 mi NNE 11.5 mph 18.4 mph N/A   Overcast
11:35 PM 64.4 °F 64.4 °F 100% 30.25 in 10.0 mi NNE 10.4 mph - N/A   Overcast
11:55 PM 64.4 °F 64.4 °F 100% 30.24 in 10.0 mi NE 10.4 mph 16.1 mph N/A   Overcast